Theta_e
366 361 361 362 361 358 356 364 360 357 361 365 367 363 363 357 352 358 356 353 354 355
364 365 361 364 365 360 361 360 362 355 359 364 367 364 363 356 355 357 359 357 354 355
362 364 364 364 364 365 365 371 372 364 365 366 366 365 362 357 359 357 356 355 354 354
358 359 362 360 362 362 363 364 368 373 368 367 366 366 362 359 358 354 353 356 356 356
358 358 354 354 357 362 364 369 370 372 369 366 365 366 363 360 357 353 352 356 357 356
351 351 350 353 364 361 367 369 369 368 369 366 366 363 365 362 359 358 356 356 358 355
358 362 356 358 359 364 373 371 369 369 369 368 366 366 364 363 362 360 359 357 357 357
371 371 372 372 371 369 368 370 371 368 367 368 366 364 363 362 361 360 359 359 357 356
367 367 367 368 368 369 369 367 368 366 365 363 362 350 343 349 354 355 357 353 357 360
360 359 358 363 363 362 363 363 363 362 364 363 362 344 341 343 353 352 352 352 353 355
351 352 357 358 361 361 359 357 359 360 362 362 361 341 337 341 349 347 354 355 356 357
347 346 347 346 348 351 354 358 357 360 359 359 360 343 334 337 351 350 350 351 355 357
345 343 342 343 345 347 347 347 351 351 356 349 356 343 333 335 350 348 347 350 351 342
342 340 341 343 341 340 340 342 344 345 348 351 351 352 332 327 346 345 345 345 345 348
Wind_Speed
11 9 8 8 7 8 6 1 9 11 12 8 7 6 7 6 6 4 5 7 6 4
11 11 10 10 9 10 10 4 13 13 16 10 9 8 8 6 7 5 6 6 6 5
12 12 12 10 10 8 8 5 3 12 11 9 10 8 8 6 6 7 5 6 7 7
12 14 12 12 11 10 10 9 6 5 8 9 8 11 10 9 7 10 9 8 9 10
9 10 11 12 12 11 11 8 7 6 7 8 8 9 11 12 10 11 11 11 10 10
13 11 12 10 8 11 8 9 9 9 8 9 9 10 11 12 13 12 13 12 12 13
10 6 9 9 10 9 6 7 8 9 10 10 11 11 12 13 11 12 11 11 12 11
5 5 5 5 4 5 4 5 7 7 8 8 10 9 13 13 11 11 11 10 10 13
6 6 5 5 6 6 5 5 5 6 7 8 8 11 4 5 7 12 11 6 14 14
6 6 5 4 4 4 4 4 4 5 6 7 8 6 5 5 10 14 15 15 16 12
7 7 7 6 3 3 3 4 6 6 7 7 6 7 7 8 5 6 10 13 13 13
5 6 6 7 8 8 7 5 5 6 7 8 8 8 9 9 6 7 9 9 9 12
5 6 7 7 7 6 7 9 6 6 7 8 7 9 9 6 5 8 8 8 10 14
5 5 6 5 6 7 7 8 9 9 8 9 10 11 12 14 8 8 7 7 7 8
Wind_Direction
208 229 241 255 268 272 264 276 169 101 288 217 161 164 171 186 214 229 236 247 243 264
217 215 234 232 243 235 252 241 160 169 207 202 168 179 181 195 200 206 214 242 228 236
211 220 226 243 255 269 290 300 230 174 182 178 168 173 178 199 196 202 217 212 236 227
210 219 219 229 234 239 246 251 250 203 183 183 185 178 187 209 192 201 215 221 223 233
225 222 227 222 226 222 228 225 227 248 200 196 202 196 196 202 212 197 213 215 225 221
217 214 231 250 237 223 216 208 214 210 221 208 213 218 207 209 211 215 212 214 219 220
192 217 208 224 240 229 214 212 212 214 218 219 223 223 221 218 221 226 229 223 228 222
36 16 7 1 350 334 337 231 219 227 229 224 230 230 231 226 221 233 232 234 236 237
23 10 344 349 335 344 326 293 281 251 245 244 241 241 241 222 229 249 241 256 275 243
18 10 29 17 346 347 347 337 313 307 289 258 257 230 177 176 211 228 239 211 229 243
18 7 359 341 305 273 288 288 295 274 272 275 265 210 185 202 223 261 251 226 227 232
11 0 351 347 347 341 332 289 290 291 270 261 262 260 216 206 236 249 256 261 265 254
359 355 344 327 327 335 333 317 317 292 297 298 282 257 235 210 249 263 261 254 253 248
357 332 290 357 346 334 325 317 313 311 305 287 277 272 236 209 224 239 254 256 254 257